Location: Aressy
(43.2833°N, 0.3167°W)
Time: 01:23:34
(UTC+00:00)

Cosmos 1943 Rocket - Pass Details

Date: 28 January 2021
Orbit: 810 x 845 km, 71.0° (Epoch: 08 March)

Event Time Altitude Azimuth Distance (km) Brightness Sun altitude
Rises 19:19:05 0° 180° (S) 3,330 5.3 -23.9°
Reaches altitude 10° 19:21:38 10° 172° (S) 2,407 4.5 -24.3°
Enters shadow 19:23:21 19° 162° (SSE) 1,841 3.8 -24.6°
